TimeCDT,TemperatureF,Dew PointF,Humidity,Sea Level PressureIn,VisibilityMPH,Wind Direction,Wind SpeedMPH,Gust SpeedMPH,PrecipitationIn,Events,Conditions,WindDirDegrees,DateUTC
12:52 AM,41.0,30.9,67,30.25,10.0,NNE,3.5,-,0.00,Rain,Light Rain,30,2013-04-02 05:52:00
1:52 AM,39.9,30.9,70,30.25,10.0,NE,5.8,-,0.00,,Overcast,40,2013-04-02 06:52:00
3:52 AM,37.9,30.9,76,30.25,10.0,NE,9.2,-,0.00,Rain,Light Rain,50,2013-04-02 08:52:00
4:52 AM,37.0,30.9,79,30.26,6.0,Variable,5.8,-,0.00,Rain,Rain,0,2013-04-02 09:52:00
5:52 AM,37.0,30.9,79,30.29,10.0,NNE,3.5,-,0.00,,Overcast,30,2013-04-02 10:52:00
6:52 AM,37.0,28.9,73,30.29,10.0,Variable,4.6,-,0.00,,Overcast,0,2013-04-02 11:52:00
7:52 AM,37.0,28.9,73,30.30,10.0,ENE,5.8,-,0.00,,Overcast,60,2013-04-02 12:52:00
8:52 AM,35.1,28.9,78,30.31,8.0,ENE,4.6,-,0.00,Rain,Light Rain,70,2013-04-02 13:52:00
9:52 AM,36.0,30.0,79,30.29,10.0,Variable,4.6,-,0.00,,Overcast,0,2013-04-02 14:52:00
10:52 AM,37.9,30.0,73,30.31,10.0,East,5.8,-,N/A,,Overcast,90,2013-04-02 15:52:00
12:52 PM,41.0,30.9,67,30.30,10.0,Variable,6.9,-,0.00,Rain,Light Rain,0,2013-04-02 17:52:00
1:52 PM,41.0,28.9,62,30.30,10.0,ENE,5.8,-,0.00,,Overcast,60,2013-04-02 18:52:00
2:52 PM,39.9,28.9,65,30.28,8.0,East,6.9,-,0.00,Rain,Light Rain,80,2013-04-02 19:52:00
3:52 PM,41.0,28.9,62,30.26,9.0,ENE,9.2,-,0.00,Rain,Light Rain,70,2013-04-02 20:52:00
4:52 PM,39.9,33.1,77,30.26,8.0,ENE,4.6,-,0.00,Rain,Light Rain,70,2013-04-02 21:52:00
5:52 PM,39.9,34.0,79,30.26,10.0,Calm,Calm,-,N/A,Rain,Light Rain,0,2013-04-02 22:52:00
6:52 PM,41.0,32.0,70,30.25,10.0,East,3.5,-,N/A,,Overcast,90,2013-04-02 23:52:00
7:52 PM,39.9,30.9,70,30.25,10.0,East,3.5,-,N/A,,Overcast,80,2013-04-03 00:52:00
8:52 PM,39.0,33.1,79,30.25,10.0,Calm,Calm,-,N/A,,Scattered Clouds,0,2013-04-03 01:52:00
9:52 PM,37.9,33.1,83,30.27,10.0,Calm,Calm,-,N/A,,Mostly Cloudy,0,2013-04-03 02:52:00
10:52 PM,36.0,32.0,86,30.27,10.0,Calm,Calm,-,N/A,,Mostly Cloudy,0,2013-04-03 03:52:00
11:52 PM,37.9,30.9,76,30.27,10.0,Calm,Calm,-,N/A,,Mostly Cloudy,0,2013-04-03 04:52:00